Wetterdaten: Woche 16.05.05 - 22.05.05 (KW20)
Datum Zeit Temperatur Luftfeuchte Luftdruck Niederschlag Windrichtung Wind
16.05.2005 00:00 7,0 C 92 % 1015 hPa 0,0 l/m N 0,0 km/h (0 Bft)
16.05.2005 01:00 6,7 C 94 % 1015 hPa 0,0 l/m N 0,0 km/h (0 Bft)
16.05.2005 02:00 6,6 C 96 % 1015 hPa 0,0 l/m N 0,0 km/h (0 Bft)
16.05.2005 03:00 6,8 C 98 % 1015 hPa 0,0 l/m N 0,0 km/h (0 Bft)
16.05.2005 04:00 6,6 C 98 % 1014 hPa 0,0 l/m N 0,0 km/h (0 Bft)
16.05.2005 05:00 6,0 C 99 % 1014 hPa 0,0 l/m W-NW 6,9 km/h (2 Bft)
16.05.2005 06:00 5,8 C 100 % 1014 hPa 0,0 l/m NW 4,1 km/h (1 Bft)
16.05.2005 07:00 6,7 C 100 % 1014 hPa 0,0 l/m NW 5,0 km/h (1 Bft)
16.05.2005 08:00 8,6 C 99 % 1014 hPa 0,0 l/m N-NW 5,7 km/h (1 Bft)
16.05.2005 09:00 10,7 C 89 % 1014 hPa 0,0 l/m N-NO 6,2 km/h (2 Bft)
16.05.2005 10:00 12,9 C 76 % 1014 hPa 0,0 l/m N 5,7 km/h (1 Bft)
16.05.2005 11:00 13,4 C 75 % 1013 hPa 0,0 l/m N 8,5 km/h (2 Bft)
16.05.2005 12:00 14,0 C 74 % 1013 hPa 0,0 l/m N-NO 11,1 km/h (2 Bft)
16.05.2005 13:00 14,1 C 73 % 1013 hPa 0,0 l/m N-NO 11,7 km/h (2 Bft)
16.05.2005 14:00 13,3 C 81 % 1012 hPa 2,0 l/m N-NO 8,9 km/h (2 Bft)
16.05.2005 15:00 12,4 C 90 % 1012 hPa 0,0 l/m N 10,2 km/h (2 Bft)
16.05.2005 16:00 11,7 C 92 % 1011 hPa 1,0 l/m N 8,7 km/h (2 Bft)
16.05.2005 17:00 11,1 C 90 % 1011 hPa 1,0 l/m N 11,0 km/h (2 Bft)
16.05.2005 18:00 10,8 C 92 % 1012 hPa 0,0 l/m W 7,5 km/h (2 Bft)
16.05.2005 19:00 10,0 C 96 % 1013 hPa 2,0 l/m W 10,8 km/h (2 Bft)
16.05.2005 20:00 9,2 C 96 % 1013 hPa 1,0 l/m SW 4,1 km/h (1 Bft)
16.05.2005 21:00 9,0 C 98 % 1013 hPa 2,0 l/m S-SW 6,3 km/h (2 Bft)
16.05.2005 22:00 8,6 C 100 % 1014 hPa 0,0 l/m S-SW 9,7 km/h (2 Bft)
16.05.2005 23:00 8,5 C 100 % 1014 hPa 0,0 l/m S-SW 8,6 km/h (2 Bft)
17.05.2005 00:00 8,2 C 100 % 1014 hPa 0,0 l/m S-SW 12,0 km/h (2 Bft)
17.05.2005 01:00 8,0 C 100 % 1013 hPa 0,0 l/m S-SW 10,2 km/h (2 Bft)
17.05.2005 02:00 7,8 C 100 % 1013 hPa 0,0 l/m S-SW 8,2 km/h (2 Bft)
17.05.2005 03:00 7,6 C 100 % 1013 hPa 0,0 l/m S-SW 9,5 km/h (2 Bft)
17.05.2005 04:00 7,3 C 100 % 1013 hPa 0,0 l/m S-SW 8,3 km/h (2 Bft)
17.05.2005 05:00 6,9 C 100 % 1012 hPa 0,0 l/m S-SW 5,1 km/h (1 Bft)
17.05.2005 06:00 6,5 C 100 % 1013 hPa 0,0 l/m S-SO 0,6 km/h (0 Bft)
17.05.2005 07:00 7,4 C 100 % 1013 hPa 0,0 l/m S-SW 6,1 km/h (2 Bft)
17.05.2005 08:00 8,6 C 99 % 1013 hPa 0,0 l/m W 8,0 km/h (2 Bft)
17.05.2005 09:00 10,0 C 86 % 1014 hPa 0,0 l/m W 10,9 km/h (2 Bft)
17.05.2005 10:00 11,2 C 74 % 1014 hPa 0,0 l/m N 11,3 km/h (2 Bft)
17.05.2005 11:00 13,2 C 63 % 1014 hPa 0,0 l/m N-NW 8,0 km/h (2 Bft)
17.05.2005 12:00 15,1 C 52 % 1014 hPa 0,0 l/m W 6,8 km/h (2 Bft)
17.05.2005 13:00 16,3 C 47 % 1013 hPa 0,0 l/m N-NW 9,4 km/h (2 Bft)
17.05.2005 14:00 16,8 C 45 % 1013 hPa 0,0 l/m O-NO 8,5 km/h (2 Bft)
17.05.2005 15:00 17,4 C 43 % 1013 hPa 0,0 l/m N 10,1 km/h (2 Bft)
17.05.2005 16:00 17,7 C 43 % 1012 hPa 0,0 l/m N-NO 12,9 km/h (3 Bft)
17.05.2005 17:00 18,2 C 42 % 1012 hPa 0,0 l/m N 14,2 km/h (3 Bft)
17.05.2005 18:00 17,5 C 47 % 1012 hPa 0,0 l/m N 18,0 km/h (3 Bft)
17.05.2005 19:00 15,5 C 52 % 1012 hPa 0,0 l/m N-NO 16,7 km/h (3 Bft)
17.05.2005 20:00 13,8 C 60 % 1012 hPa 0,0 l/m N-NO 11,0 km/h (2 Bft)
17.05.2005 21:00 12,5 C 69 % 1013 hPa 0,0 l/m N-NO 13,7 km/h (3 Bft)
17.05.2005 22:00 11,8 C 72 % 1013 hPa 0,0 l/m N 13,7 km/h (3 Bft)
17.05.2005 23:00 11,1 C 77 % 1013 hPa 0,0 l/m N 12,8 km/h (3 Bft)
18.05.2005 00:00 10,5 C 81 % 1013 hPa 0,0 l/m N-NW 10,7 km/h (2 Bft)
18.05.2005 01:00 9,7 C 87 % 1013 hPa 0,0 l/m N 12,2 km/h (3 Bft)
18.05.2005 02:00 9,4 C 89 % 1013 hPa 0,0 l/m N-NW 12,3 km/h (3 Bft)
18.05.2005 03:00 9,1 C 89 % 1013 hPa 0,0 l/m N 14,9 km/h (3 Bft)
18.05.2005 04:00 9,1 C 86 % 1013 hPa 0,0 l/m N 15,1 km/h (3 Bft)
18.05.2005 05:00 8,9 C 86 % 1013 hPa 0,0 l/m N 14,2 km/h (3 Bft)
18.05.2005 06:00 8,5 C 86 % 1013 hPa 0,0 l/m N 16,6 km/h (3 Bft)
18.05.2005 07:00 8,5 C 83 % 1014 hPa 0,0 l/m N 16,9 km/h (3 Bft)
18.05.2005 08:00 8,7 C 79 % 1015 hPa 0,0 l/m N-NW 18,0 km/h (3 Bft)
18.05.2005 09:00 9,4 C 75 % 1015 hPa 0,0 l/m N 18,8 km/h (3 Bft)
18.05.2005 10:00 9,4 C 77 % 1016 hPa 0,0 l/m N-NW 17,0 km/h (3 Bft)
18.05.2005 11:00 9,8 C 75 % 1017 hPa 0,0 l/m N-NW 17,4 km/h (3 Bft)
18.05.2005 12:00 10,3 C 72 % 1018 hPa 0,0 l/m N-NW 16,1 km/h (3 Bft)
18.05.2005 13:00 9,5 C 76 % 1018 hPa 0,0 l/m NW 14,0 km/h (3 Bft)
18.05.2005 14:00 8,8 C 80 % 1019 hPa 0,0 l/m NW 14,1 km/h (3 Bft)
18.05.2005 15:00 8,7 C 79 % 1019 hPa 0,0 l/m N 15,3 km/h (3 Bft)
18.05.2005 16:00 8,4 C 81 % 1020 hPa 0,0 l/m NW 14,7 km/h (3 Bft)
18.05.2005 17:00 8,4 C 80 % 1020 hPa 0,0 l/m N-NW 11,0 km/h (2 Bft)
18.05.2005 18:00 8,6 C 81 % 1021 hPa 0,0 l/m NW 4,1 km/h (1 Bft)
18.05.2005 19:00 8,6 C 82 % 1021 hPa 0,0 l/m W 4,4 km/h (1 Bft)
18.05.2005 20:00 8,5 C 82 % 1022 hPa 0,0 l/m N 0,0 km/h (0 Bft)
18.05.2005 21:00 8,3 C 85 % 1023 hPa 0,0 l/m N 0,0 km/h (0 Bft)
18.05.2005 22:00 8,3 C 86 % 1023 hPa 0,0 l/m N 0,0 km/h (0 Bft)
18.05.2005 23:00 8,1 C 89 % 1023 hPa 0,0 l/m N 0,0 km/h (0 Bft)
19.05.2005 00:00 7,9 C 94 % 1023 hPa 0,0 l/m N 0,0 km/h (0 Bft)
19.05.2005 01:00 7,8 C 95 % 1023 hPa 0,0 l/m N 0,0 km/h (0 Bft)
19.05.2005 02:00 7,5 C 96 % 1023 hPa 0,0 l/m N 0,0 km/h (0 Bft)
19.05.2005 03:00 7,2 C 96 % 1023 hPa 0,0 l/m N 0,0 km/h (0 Bft)
19.05.2005 04:00 6,6 C 97 % 1023 hPa 0,0 l/m NW 0,6 km/h (0 Bft)
19.05.2005 05:00 5,8 C 98 % 1023 hPa 0,0 l/m W 1,0 km/h (0 Bft)
19.05.2005 06:00 5,4 C 99 % 1024 hPa 0,0 l/m W 0,8 km/h (0 Bft)
19.05.2005 07:00 6,0 C 100 % 1024 hPa 0,0 l/m N-NW 5,0 km/h (1 Bft)
19.05.2005 08:00 8,2 C 96 % 1024 hPa 0,0 l/m NO 9,2 km/h (2 Bft)
19.05.2005 09:00 10,4 C 71 % 1024 hPa 0,0 l/m O-NO 11,4 km/h (2 Bft)
19.05.2005 10:00 12,4 C 57 % 1024 hPa 0,0 l/m N-NO 12,7 km/h (3 Bft)
19.05.2005 11:00 14,5 C 46 % 1024 hPa 0,0 l/m O 12,7 km/h (3 Bft)
19.05.2005 12:00 14,6 C 44 % 1024 hPa 0,0 l/m N-NO 10,2 km/h (2 Bft)
19.05.2005 13:00 15,1 C 42 % 1024 hPa 0,0 l/m N 9,7 km/h (2 Bft)
19.05.2005 14:00 17,0 C 39 % 1024 hPa 0,0 l/m O 10,8 km/h (2 Bft)
19.05.2005 15:00 17,6 C 37 % 1023 hPa 0,0 l/m NO 10,3 km/h (2 Bft)
19.05.2005 16:00 18,1 C 36 % 1023 hPa 0,0 l/m O-NO 11,0 km/h (2 Bft)
19.05.2005 17:00 18,4 C 36 % 1023 hPa 0,0 l/m O 7,6 km/h (2 Bft)
19.05.2005 18:00 18,0 C 36 % 1022 hPa 0,0 l/m NO 8,4 km/h (2 Bft)
19.05.2005 19:00 17,0 C 38 % 1022 hPa 0,0 l/m O-NO 4,4 km/h (1 Bft)
19.05.2005 20:00 14,7 C 47 % 1022 hPa 0,0 l/m NW 0,5 km/h (0 Bft)
19.05.2005 21:00 11,9 C 57 % 1023 hPa 0,0 l/m N 0,0 km/h (0 Bft)
19.05.2005 22:00 9,9 C 65 % 1023 hPa 0,0 l/m N 0,0 km/h (0 Bft)
19.05.2005 23:00 8,5 C 73 % 1023 hPa 0,0 l/m N 0,0 km/h (0 Bft)
20.05.2005 00:00 7,7 C 77 % 1023 hPa 0,0 l/m N 0,0 km/h (0 Bft)
20.05.2005 01:00 7,2 C 79 % 1023 hPa 0,0 l/m W-NW 1,4 km/h (1 Bft)
20.05.2005 02:00 6,7 C 81 % 1023 hPa 0,0 l/m N 0,0 km/h (0 Bft)
20.05.2005 03:00 6,1 C 85 % 1023 hPa 0,0 l/m N 0,0 km/h (0 Bft)
20.05.2005 04:00 5,4 C 87 % 1023 hPa 0,0 l/m N 0,0 km/h (0 Bft)
20.05.2005 05:00 4,8 C 89 % 1023 hPa 0,0 l/m N 0,0 km/h (0 Bft)
20.05.2005 06:00 5,0 C 92 % 1023 hPa 0,0 l/m N 0,0 km/h (0 Bft)
20.05.2005 07:00 7,2 C 91 % 1023 hPa 0,0 l/m N 0,0 km/h (0 Bft)
20.05.2005 08:00 9,7 C 80 % 1023 hPa 0,0 l/m S 1,5 km/h (1 Bft)
20.05.2005 09:00 12,9 C 64 % 1023 hPa 0,0 l/m SO 9,2 km/h (2 Bft)
20.05.2005 10:00 16,4 C 50 % 1022 hPa 0,0 l/m O 9,6 km/h (2 Bft)
20.05.2005 11:00 19,1 C 41 % 1022 hPa 0,0 l/m S-SW 10,8 km/h (2 Bft)
20.05.2005 12:00 20,6 C 40 % 1022 hPa 0,0 l/m S-SW 10,9 km/h (2 Bft)
20.05.2005 13:00 21,6 C 36 % 1021 hPa 0,0 l/m S 13,0 km/h (3 Bft)
20.05.2005 14:00 22,7 C 34 % 1021 hPa 0,0 l/m S-SW 11,6 km/h (2 Bft)
20.05.2005 15:00 23,6 C 32 % 1020 hPa 0,0 l/m S 13,2 km/h (3 Bft)
20.05.2005 16:00 23,9 C 30 % 1019 hPa 0,0 l/m S 12,6 km/h (3 Bft)
20.05.2005 17:00 24,2 C 31 % 1019 hPa 0,0 l/m S-SW 12,2 km/h (2 Bft)
20.05.2005 18:00 24,4 C 32 % 1019 hPa 0,0 l/m S-SW 9,7 km/h (2 Bft)
20.05.2005 19:00 23,0 C 34 % 1018 hPa 0,0 l/m S-SW 3,3 km/h (1 Bft)
20.05.2005 20:00 20,3 C 44 % 1018 hPa 0,0 l/m N 0,0 km/h (0 Bft)
20.05.2005 21:00 18,2 C 52 % 1018 hPa 0,0 l/m N 0,0 km/h (0 Bft)
20.05.2005 22:00 16,5 C 59 % 1018 hPa 0,0 l/m W-SW 1,0 km/h (0 Bft)
20.05.2005 23:00 15,1 C 64 % 1018 hPa 0,0 l/m S-SW 0,9 km/h (0 Bft)
21.05.2005 00:00 14,6 C 69 % 1018 hPa 0,0 l/m N 0,0 km/h (0 Bft)
21.05.2005 01:00 15,1 C 65 % 1018 hPa 0,0 l/m W 11,4 km/h (2 Bft)
21.05.2005 02:00 16,1 C 57 % 1018 hPa 0,0 l/m W-SW 10,2 km/h (2 Bft)
21.05.2005 03:00 17,1 C 53 % 1018 hPa 0,0 l/m W-SW 7,8 km/h (2 Bft)
21.05.2005 04:00 15,9 C 63 % 1018 hPa 0,0 l/m W-SW 12,3 km/h (3 Bft)
21.05.2005 05:00 14,2 C 78 % 1018 hPa 0,0 l/m S 9,5 km/h (2 Bft)
21.05.2005 06:00 13,5 C 85 % 1018 hPa 0,0 l/m N-NW 1,3 km/h (1 Bft)
21.05.2005 07:00 13,6 C 91 % 1018 hPa 0,0 l/m S 2,3 km/h (1 Bft)
21.05.2005 08:00 14,3 C 89 % 1019 hPa 0,0 l/m O-NO 1,8 km/h (1 Bft)
21.05.2005 09:00 15,1 C 87 % 1019 hPa 0,0 l/m S 5,0 km/h (1 Bft)
21.05.2005 10:00 17,4 C 71 % 1019 hPa 0,0 l/m W 10,3 km/h (2 Bft)
21.05.2005 11:00 19,4 C 61 % 1019 hPa 0,0 l/m W 13,1 km/h (3 Bft)
21.05.2005 12:00 21,6 C 51 % 1018 hPa 0,0 l/m S 11,3 km/h (2 Bft)
21.05.2005 13:00 21,9 C 47 % 1017 hPa 0,0 l/m W 7,5 km/h (2 Bft)
21.05.2005 14:00 21,7 C 44 % 1017 hPa 0,0 l/m W 10,0 km/h (2 Bft)
21.05.2005 15:00 21,2 C 45 % 1016 hPa 0,0 l/m S-SW 8,2 km/h (2 Bft)
21.05.2005 16:00 20,7 C 46 % 1016 hPa 0,0 l/m W-SW 9,3 km/h (2 Bft)
21.05.2005 17:00 19,2 C 63 % 1016 hPa 0,0 l/m W 12,1 km/h (2 Bft)
21.05.2005 18:00 18,6 C 69 % 1015 hPa 0,0 l/m N 9,7 km/h (2 Bft)
21.05.2005 19:00 18,1 C 66 % 1015 hPa 0,0 l/m NW 1,9 km/h (1 Bft)
21.05.2005 20:00 17,1 C 71 % 1015 hPa 0,0 l/m NW 5,3 km/h (1 Bft)
21.05.2005 21:00 15,9 C 79 % 1016 hPa 7,0 l/m W-SW 17,6 km/h (3 Bft)
21.05.2005 22:00 13,7 C 93 % 1016 hPa 5,0 l/m W-NW 8,9 km/h (2 Bft)
21.05.2005 23:00 13,3 C 96 % 1016 hPa 0,0 l/m W 4,9 km/h (1 Bft)
22.05.2005 00:00 13,3 C 98 % 1016 hPa 0,0 l/m S 4,7 km/h (1 Bft)
22.05.2005 01:00 13,2 C 100 % 1016 hPa 0,0 l/m S 6,5 km/h (2 Bft)
22.05.2005 02:00 13,0 C 100 % 1016 hPa 0,0 l/m O-NO 2,2 km/h (1 Bft)
22.05.2005 03:00 13,1 C 100 % 1015 hPa 1,0 l/m N 0,0 km/h (0 Bft)
22.05.2005 04:00 13,0 C 100 % 1015 hPa 0,0 l/m N 0,0 km/h (0 Bft)
22.05.2005 05:00 12,9 C 100 % 1016 hPa 2,0 l/m S-SW 3,2 km/h (1 Bft)
22.05.2005 06:00 12,9 C 100 % 1016 hPa 2,0 l/m S 4,4 km/h (1 Bft)
22.05.2005 07:00 12,7 C 100 % 1016 hPa 0,0 l/m S 11,9 km/h (2 Bft)
22.05.2005 08:00 12,6 C 100 % 1016 hPa 0,0 l/m S 16,3 km/h (3 Bft)
22.05.2005 09:00 12,5 C 99 % 1016 hPa 0,0 l/m S-SW 13,1 km/h (3 Bft)
22.05.2005 10:00 12,5 C 100 % 1016 hPa 1,0 l/m S-SW 13,0 km/h (3 Bft)
22.05.2005 11:00 12,8 C 99 % 1016 hPa 0,0 l/m S 15,9 km/h (3 Bft)
22.05.2005 12:00 14,0 C 90 % 1016 hPa 0,0 l/m S 6,9 km/h (2 Bft)
22.05.2005 13:00 16,2 C 75 % 1015 hPa 0,0 l/m S-SW 5,3 km/h (1 Bft)
22.05.2005 14:00 18,0 C 63 % 1015 hPa 0,0 l/m SO 4,2 km/h (1 Bft)
22.05.2005 15:00 18,0 C 63 % 1014 hPa 0,0 l/m O-SO 2,8 km/h (1 Bft)
22.05.2005 16:00 18,8 C 58 % 1014 hPa 0,0 l/m N-NO 7,0 km/h (2 Bft)
22.05.2005 17:00 19,7 C 48 % 1014 hPa 0,0 l/m N-NW 6,0 km/h (2 Bft)
22.05.2005 18:00 19,2 C 54 % 1013 hPa 0,0 l/m O 2,1 km/h (1 Bft)
22.05.2005 19:00 18,7 C 60 % 1014 hPa 0,0 l/m NW 3,6 km/h (1 Bft)
22.05.2005 20:00 17,3 C 68 % 1014 hPa 0,0 l/m W 7,5 km/h (2 Bft)
22.05.2005 21:00 15,4 C 73 % 1015 hPa 0,0 l/m W 17,4 km/h (3 Bft)
22.05.2005 22:00 13,9 C 77 % 1016 hPa 0,0 l/m NW 16,4 km/h (3 Bft)
22.05.2005 23:00 12,7 C 80 % 1016 hPa 0,0 l/m W 6,0 km/h (2 Bft)
Min-Datum _ 20.05.05 20.05.05 16.05.05 - - 16.05.05
_ Min-Zeit 05:43 16:13 14:44 - - 00:00
Minimum _ 4,7 C 27 % 1011 hPa - - 0,0 km/h (0 Bft)
Max-Datum _ 20.05.05 16.05.05 19.05.05 21.05.05 - 17.05.05
_ Max-Zeit 18:28 06:19 06:30 21:39 - 18:52
Maximum _ 24,7 C 100 % 1024 hPa 7,0 l/m - 33,8 km/h
N (5 Bft)
Durchschnitt _ 12,7 C 75 % 1017 hPa #27,0 l/m N 7,7 km/h (2 Bft)

Durchschnitt Minimum Temp.12,3 C
Durchschnitt Maximum Temp.13,2 C